Location: Winter Haven
(28.0220°N, 81.7330°W)
Time: 01:49:07
(UTC-05:00)

Amateur Radio Satellites - All Passes

Search period start: 03 December 2016 01:19
Search period end: 04 December 2016 01:19
Location: Winter Haven, 28.0220°N, 81.7330°W

Satellite Date Start Highest point End Downlink Frequencies (MHz)
Time Altitude Azimuth
DX 1 03 Dec 01:24:23 01:26:31 13° 265° (W) 01:28:40 434.975-435.025
DUCHIFAT 1 03 Dec 01:24:34 01:25:36 11° 291° (WNW) 01:26:38 145.980
Gurwin Techsat 1B 03 Dec 01:31:10 01:35:19 23° 97° (E) 01:39:28 435.225
AO-85 03 Dec 01:32:59 01:36:04 16° 109° (ESE) 01:39:02 145.980
PHONESAT 2.4 03 Dec 01:37:15 01:39:46 39° 331° (NNW) 01:42:18 2401.200-2431.200
UKube-1 03 Dec 01:39:15 01:40:58 12° 265° (W) 01:42:42 .
SWISSCUBE 03 Dec 01:40:59 01:45:00 28° 72° (ENE) 01:49:01 437.505
BEESAT 03 Dec 01:45:26 01:49:26 27° 72° (ENE) 01:53:27 436.000
TISAT 1 03 Dec 01:56:45 02:00:28 30° 262° (W) 02:04:13 437.305
Oscar 19 03 Dec 02:03:34 02:08:44 71° 285° (WNW) 02:13:54 437.125/150
AUBIESAT-1 03 Dec 02:04:20 02:08:09 68° 72° (ENE) 02:12:18 437.475
ITUPSAT 1 03 Dec 02:09:54 02:14:32 52° 75° (ENE) 02:19:11 437.325
M-CUBED/EXP-1 PRIME 03 Dec 02:13:29 02:17:15 68° 255° (WSW) 02:21:22 437.505
ITAMSAT 1 03 Dec 02:25:47 02:28:49 15° 95° (E) 02:31:48 435.822/435.867
O/OREOS (USA 219) 03 Dec 02:40:09 02:43:59 28° 67° (ENE) 02:47:48 437.305
ISS 03 Dec 02:43:59 02:45:08 11° 235° (SW) 02:46:16 145.825
AO-7 03 Dec 03:04:55 03:11:59 30° 99° (E) 03:18:59 29.400- 29.500
GONETS M04 03 Dec 03:05:02 03:11:08 21° 286° (WNW) 03:17:15
Gurwin Techsat 1B 03 Dec 03:10:34 03:15:11 31° 289° (WNW) 03:19:48 435.225
AO-85 03 Dec 03:11:23 03:16:13 43° 299° (WNW) 03:20:45 145.980
Cosmos 2499 03 Dec 03:14:05 03:18:34 15° 290° (WNW) 03:23:13 435.465 / 435.565
SWISSCUBE 03 Dec 03:19:03 03:22:40 21° 263° (W) 03:26:17 437.505
MOZHAYETS 4 03 Dec 03:22:42 03:27:18 74° 76° (ENE) 03:31:52
BEESAT 03 Dec 03:23:29 03:27:06 21° 263° (W) 03:30:44 436.000
ITUPSAT 1 03 Dec 03:51:16 03:52:31 11° 266° (W) 03:53:47 437.325
ITAMSAT 1 03 Dec 04:03:29 04:08:22 43° 287° (WNW) 04:13:13 435.822/435.867
KKS-1 03 Dec 04:18:53 04:23:15 57° 259° (W) 04:27:39 437.445
O/OREOS (USA 219) 03 Dec 04:20:08 04:23:06 18° 260° (W) 04:26:03 437.305
STARS 03 Dec 04:34:38 04:39:02 89° 246° (WSW) 04:43:29 437.465
BEESAT 3 03 Dec 04:49:35 04:52:11 17° 109° (ESE) 04:54:48 437.485
CUBESAT XI-V 03 Dec 04:52:51 04:57:26 86° 261° (W) 05:02:02 437.345
AO-7 03 Dec 04:56:51 05:04:45 48° 292° (WNW) 05:12:37 29.400- 29.500
GOMX 1 03 Dec 05:08:08 05:11:37 17° 94° (E) 05:15:05 467.674
BEESAT 2 03 Dec 05:11:58 05:13:48 13° 108° (ESE) 05:15:39 435.950
BRITE-PL 03 Dec 05:12:33 05:17:51 49° 100° (E) 05:23:19 437.365/2234.400
HORYU 2 03 Dec 05:31:26 05:35:47 55° 101° (E) 05:40:05 437.375
DOVE 4 03 Dec 05:37:39 05:39:44 12° 92° (E) 05:41:48 437.250
Cubesat XI-IV 03 Dec 05:38:19 05:41:30 16° 95° (E) 05:44:39 437.490
NOAA 15 03 Dec 05:46:55 05:51:03 23° 97° (E) 05:55:10 137.62
SO-50 03 Dec 06:06:36 06:10:35 30° 59° (ENE) 06:14:29 436.795
Cosmos 2504 03 Dec 06:17:39 06:21:48 14° 70° (ENE) 06:25:49 435.465 / 435.565
PHONESAT 2.4 03 Dec 06:26:20 06:27:49 14° 20° (NNE) 06:29:19 2401.200-2431.200
BEESAT 3 03 Dec 06:26:25 06:29:34 23° 302° (WNW) 06:32:46 437.485
NOAA 18 03 Dec 06:31:57 06:37:02 37° 100° (E) 06:42:04 137.9125
LilacSat-2 03 Dec 06:35:11 06:38:58 90° 278° (W) 06:42:43 437.200
GOMX 1 03 Dec 06:44:32 06:49:44 46° 286° (WNW) 06:54:56 467.674
YUBILEINY 03 Dec 06:47:26 06:56:07 59° 82° (E) 07:04:46 435.215
BEESAT 2 03 Dec 06:47:44 06:51:14 31° 300° (WNW) 06:54:48 435.950
CUTE-I 03 Dec 06:51:33 06:56:53 81° 284° (WNW) 07:02:10 437.470
BRITE-PL 03 Dec 06:52:29 06:55:53 17° 290° (WNW) 06:59:23 437.365/2234.400
Cosmos 2491 03 Dec 07:04:55 07:13:20 52° 90° (E) 07:21:43 435.465 / 435.565
HO-68 03 Dec 07:04:56 07:10:14 22° 97° (E) 07:15:30 435.675
STRAND 1 03 Dec 07:06:47 07:11:56 82° 76° (ENE) 07:17:04 437.568
CANX-2 03 Dec 07:07:10 07:09:40 15° 95° (E) 07:12:10 2200.000
DOVE 4 03 Dec 07:12:28 07:17:39 56° 285° (WNW) 07:22:39 437.250
Cubesat XI-IV 03 Dec 07:16:37 07:21:39 45° 287° (WNW) 07:26:41 437.490
CINEMA 3 03 Dec 07:18:58 07:23:22 36° 97° (E) 07:27:34 145.822/145.860
NOAA 15 03 Dec 07:26:09 07:30:44 31° 289° (WNW) 07:35:19 137.62
RS-15 03 Dec 07:30:40 07:41:55 64° 110° (ESE) 07:53:47 29.354- 29.394
SEEDS 03 Dec 07:39:07 07:42:19 21° 96° (E) 07:45:32 437.485
SO-50 03 Dec 07:47:44 07:50:44 18° 251° (WSW) 07:53:44 436.795
AIST 1 03 Dec 07:51:00 07:55:24 86° 85° (E) 07:59:48
COMPASS 1 03 Dec 07:56:01 07:59:16 22° 97° (E) 08:02:30 437.405
CUBEBUG 2 03 Dec 08:00:19 08:03:41 22° 96° (E) 08:06:58 437.445
PHONESAT 2.4 03 Dec 08:00:40 08:03:19 72° 213° (SSW) 08:05:57 2401.200-2431.200
Cosmos 2504 03 Dec 08:07:22 08:16:10 86° 265° (W) 08:24:23 435.465 / 435.565
NOAA 18 03 Dec 08:13:17 08:17:22 22° 292° (WNW) 08:21:26 137.9125
CUTE 1.7 + AOD 2 03 Dec 08:24:07 08:28:15 58° 284° (WNW) 08:32:23 437.475
CANX-2 03 Dec 08:41:51 08:45:29 29° 286° (WNW) 08:49:06 2200.000
AIST 2 03 Dec 08:44:50 08:48:53 87° 296° (WNW) 08:53:01 435.215
YUBILEINY 03 Dec 08:45:52 08:52:09 22° 276° (W) 08:58:28 435.215
Oscar 11 03 Dec 08:46:57 08:50:30 25° 97° (E) 08:54:02 145.826/435.025
UWE-3 03 Dec 08:49:10 08:53:23 56° 100° (E) 08:57:28 435.000/436.395/437.385
UNISAT 6 03 Dec 08:49:43 08:51:19 12° 68° (ENE) 08:52:54 437.425
HO-68 03 Dec 08:51:09 08:58:05 53° 289° (WNW) 09:05:00 435.675
CINEMA 3 03 Dec 08:57:13 09:00:05 16° 291° (WNW) 09:02:53 145.822/145.860
Cosmos 2491 03 Dec 09:03:22 09:10:20 26° 285° (WNW) 09:17:19 435.465 / 435.565
AAUSAT CUBESAT 2 03 Dec 09:03:52 09:07:56 59° 283° (WNW) 09:12:01 437.432
CUSAT 1 03 Dec 09:11:34 09:14:04 16° 97° (E) 09:16:15 437.405
SEEDS 03 Dec 09:14:43 09:17:50 21° 288° (WNW) 09:20:57 437.485
PRISM 03 Dec 09:15:02 09:18:59 55° 259° (W) 09:22:59 437.425
TIGRISAT 03 Dec 09:18:23 09:22:09 24° 72° (ENE) 09:25:54 435.000
ANTELSAT 03 Dec 09:18:50 09:22:43 26° 72° (ENE) 09:26:36 437.575/2403.000
COMPASS 1 03 Dec 09:31:36 09:34:37 20° 288° (WNW) 09:37:38 437.405
CUBEBUG 2 03 Dec 09:36:50 09:40:08 21° 289° (WNW) 09:43:22 437.445
ZACube-1 03 Dec 09:37:51 09:42:00 58° 284° (WNW) 09:46:04 437.345
RS-15 03 Dec 09:44:53 09:55:01 33° 310° (NW) 10:05:37 29.354- 29.394
FUNcube-1 03 Dec 09:47:35 09:51:37 47° 284° (WNW) 09:55:35 145.935
HUMSAT D 03 Dec 09:59:14 10:02:50 30° 98° (E) 10:06:24 437.325/437.525
Cosmos 2504 03 Dec 10:05:43 10:08:05 11° 281° (W) 10:10:25 435.465 / 435.565
UNISAT 6 03 Dec 10:22:57 10:27:30 51° 260° (W) 10:32:04 437.425
Oscar 11 03 Dec 10:23:24 10:26:24 19° 289° (WNW) 10:29:24 145.826/435.025
QB50P1 03 Dec 10:26:32 10:28:33 13° 70° (ENE) 10:30:35 145.935-145.965
DELFI C3 03 Dec 10:31:20 10:35:04 40° 285° (WNW) 10:38:47 145.870
DUCHIFAT 1 03 Dec 10:33:03 10:35:06 13° 69° (ENE) 10:37:09 145.980
JAS-2 03 Dec 10:44:18 10:50:56 48° 74° (ENE) 10:56:49 435.910
POPSAT HIP 1 03 Dec 10:46:13 10:49:36 23° 72° (ENE) 10:53:00 437.405
CUSAT 1 03 Dec 10:53:35 10:55:44 14° 277° (W) 10:57:41 437.405
TIGRISAT 03 Dec 10:54:54 10:58:39 24° 263° (W) 11:02:25 435.000
ANTELSAT 03 Dec 10:55:40 10:59:16 22° 264° (W) 11:02:53 437.575/2403.000
DANDE 03 Dec 11:03:52 11:09:44 65° 276° (W) 11:14:06 436.750
CUBEBUG 1 03 Dec 11:15:41 11:18:36 17° 96° (E) 11:21:29 437.445
JUGNU 03 Dec 11:16:12 11:20:26 20° 163° (SSE) 11:24:38 437.505
Cosmos 2499 03 Dec 11:18:35 11:24:24 20° 72° (ENE) 11:29:55 435.465 / 435.565
VELOX 1 03 Dec 11:19:29 11:20:55 11° 94° (E) 11:22:21 145.980
GONETS M04 03 Dec 11:25:46 11:32:02 21° 74° (ENE) 11:38:17
PCSat 03 Dec 11:28:21 11:33:19 39° 109° (ESE) 11:38:20 145.827
HUMSAT D 03 Dec 11:36:02 11:38:08 14° 290° (WNW) 11:40:13 437.325/437.525
BUGSAT 1 03 Dec 11:41:13 11:44:57 32° 74° (ENE) 11:48:45 437.445
NANOSAT C BR1 03 Dec 11:42:14 11:46:27 68° 258° (WSW) 11:50:43 145.865
DX 1 03 Dec 11:43:54 11:44:55 11° 94° (E) 11:45:56 434.975-435.025
QB50P2 03 Dec 11:45:01 11:49:10 52° 260° (W) 11:53:21 145.880/145.840
POLYITAN 1 03 Dec 11:45:35 11:49:47 55° 259° (W) 11:54:01 437.675
AO-85 03 Dec 11:50:26 11:53:23 20° 57° (ENE) 11:56:18 145.980
ESTCUBE 1 03 Dec 11:55:51 12:00:22 82° 283° (WNW) 12:04:52 437.505/2401.250
UKube-1 03 Dec 11:57:07 11:58:22 11° 95° (E) 11:59:38 .
QB50P1 03 Dec 12:00:01 12:03:56 36° 261° (W) 12:07:53 145.935-145.965
DUCHIFAT 1 03 Dec 12:06:30 12:10:24 35° 261° (W) 12:14:19 145.980
SPROUT 03 Dec 12:14:03 12:17:59 35° 99° (E) 12:21:53 437.525
AISAT 03 Dec 12:15:56 12:20:23 67° 101° (ESE) 12:24:48 437.250
POPSAT HIP 1 03 Dec 12:22:04 12:25:14 20° 264° (W) 12:28:24 437.405
JAS-2 03 Dec 12:30:49 12:35:54 21° 262° (W) 12:40:36 435.910
Gurwin Techsat 1B 03 Dec 12:46:01 12:49:42 19° 69° (ENE) 12:53:24 435.225
SRMSAT 03 Dec 12:50:31 12:53:04 13° 160° (SSE) 12:55:37 437.500
CUBEBUG 1 03 Dec 12:50:58 12:54:48 29° 287° (WNW) 12:58:38 437.445
50 SAT 03 Dec 12:52:53 12:56:12 38° 285° (WNW) 12:59:32 437.505
VELOX 1 03 Dec 12:53:15 12:57:28 43° 286° (WNW) 13:01:41 145.980
JUGNU 03 Dec 13:03:42 13:09:01 33° 172° (S) 13:14:17 437.505
Cosmos 2499 03 Dec 13:09:42 13:18:04 64° 269° (W) 13:25:49 435.465 / 435.565
PCSat 03 Dec 13:12:47 13:16:46 21° 302° (WNW) 13:20:47 145.827
Oscar 19 03 Dec 13:13:18 13:18:24 82° 76° (ENE) 13:23:32 437.125/150
DX 1 03 Dec 13:17:02 13:21:13 44° 286° (WNW) 13:25:22 434.975-435.025
BUGSAT 1 03 Dec 13:18:14 13:20:20 14° 265° (W) 13:22:27 437.445
GONETS M04 03 Dec 13:20:42 13:29:13 61° 269° (W) 13:37:47
UKube-1 03 Dec 13:30:25 13:34:30 41° 286° (WNW) 13:38:34 .
AO-85 03 Dec 13:30:48 13:33:35 19° 250° (WSW) 13:36:23 145.980
ITAMSAT 1 03 Dec 13:38:14 13:40:21 12° 66° (ENE) 13:42:29 435.822/435.867
TISAT 1 03 Dec 13:46:49 13:51:02 70° 102° (ESE) 13:55:11 437.305
SWISSCUBE 03 Dec 13:49:46 13:51:35 12° 95° (E) 13:53:24 437.505
SPROUT 03 Dec 13:51:26 13:53:32 13° 290° (WNW) 13:55:37 437.525
AUBIESAT-1 03 Dec 13:52:30 13:53:19 10° 97° (E) 13:54:08 437.475
BEESAT 03 Dec 13:54:13 13:55:58 12° 95° (E) 13:57:44 436.000
AO-7 03 Dec 13:57:33 14:03:33 23° 61° (ENE) 14:09:33 29.400- 29.500
M-CUBED/EXP-1 PRIME 03 Dec 13:59:55 14:03:06 18° 99° (E) 14:06:11 437.505
ITUPSAT 1 03 Dec 14:17:56 14:21:43 23° 97° (E) 14:25:30 437.325
Gurwin Techsat 1B 03 Dec 14:24:24 14:29:18 38° 261° (W) 14:34:14 435.225
SRMSAT 03 Dec 14:36:52 14:41:45 27° 167° (SSE) 14:46:37 437.500
BEESAT 3 03 Dec 14:49:33 14:52:37 21° 58° (ENE) 14:55:39 437.485
JUGNU 03 Dec 14:52:14 14:57:41 38° 182° (S) 15:03:06 437.505
BEESAT 2 03 Dec 15:12:29 15:15:07 17° 56° (NE) 15:17:46 435.950
ITAMSAT 1 03 Dec 15:14:07 15:19:15 58° 259° (WSW) 15:24:24 435.822/435.867
AUBIESAT-1 03 Dec 15:23:30 15:27:56 51° 289° (WNW) 15:32:10 437.475
SWISSCUBE 03 Dec 15:24:58 15:29:30 46° 286° (WNW) 15:34:01 437.505
MOZHAYETS 4 03 Dec 15:25:03 15:29:00 29° 98° (E) 15:32:57
BEESAT 03 Dec 15:29:20 15:33:53 47° 286° (WNW) 15:38:25 436.000
M-CUBED/EXP-1 PRIME 03 Dec 15:33:23 15:37:31 32° 292° (WNW) 15:41:29 437.505
AO-7 03 Dec 15:47:26 15:55:36 64° 256° (WSW) 16:03:50 29.400- 29.500
ITUPSAT 1 03 Dec 15:55:34 15:59:24 25° 289° (WNW) 16:03:14 437.325
ISS 03 Dec 16:04:38 16:07:33 30° 128° (SE) 16:10:30 145.825
KKS-1 03 Dec 16:16:40 16:20:59 46° 100° (E) 16:25:15 437.445
BRITE-PL 03 Dec 16:18:14 16:21:21 21° 71° (ENE) 16:24:35 437.365/2234.400
HORYU 2 03 Dec 16:23:11 16:26:37 22° 71° (ENE) 16:30:03 437.375
SRMSAT 03 Dec 16:25:07 16:30:31 37° 177° (S) 16:35:55 437.500
BEESAT 3 03 Dec 16:27:04 16:30:05 21° 250° (WSW) 16:33:05 437.485
STARS 03 Dec 16:31:19 16:35:08 28° 98° (E) 16:38:55 437.465
JUGNU 03 Dec 16:41:22 16:46:19 28° 192° (SSW) 16:51:14 437.505
RS-15 03 Dec 16:41:55 16:53:12 39° 53° (NE) 17:04:01 29.354- 29.394
O/OREOS (USA 219) 03 Dec 16:44:39 16:49:12 66° 288° (WNW) 16:53:44 437.305
BEESAT 2 03 Dec 16:49:26 16:52:53 28° 249° (WSW) 16:56:18 435.950
Cubesat XI-IV 03 Dec 16:54:19 16:57:02 14° 67° (ENE) 16:59:45 437.490
CUBESAT XI-V 03 Dec 16:56:21 17:00:44 40° 99° (E) 17:05:08 437.345
NOAA 15 03 Dec 17:00:52 17:04:28 19° 68° (ENE) 17:08:02 137.62
MOZHAYETS 4 03 Dec 17:02:48 17:05:53 18° 289° (WNW) 17:09:00
LilacSat-2 03 Dec 17:11:24 17:13:49 16° 72° (ENE) 17:16:15 437.200
Cosmos 2491 03 Dec 17:26:07 17:31:20 17° 72° (ENE) 17:36:32 435.465 / 435.565
ISS 03 Dec 17:41:58 17:44:05 16° 321° (NW) 17:46:13 145.825
GOMX 1 03 Dec 17:45:35 17:49:55 87° 263° (W) 17:54:34 467.674
NOAA 18 03 Dec 17:51:22 17:56:22 36° 71° (ENE) 18:01:23 137.9125
YUBILEINY 03 Dec 17:51:54 17:52:27 10° 79° (E) 17:52:59 435.215
KKS-1 03 Dec 17:55:35 17:57:04 11° 292° (WNW) 17:58:32 437.445
BRITE-PL 03 Dec 17:56:35 17:59:43 21° 264° (W) 18:02:56 437.365/2234.400
HORYU 2 03 Dec 17:59:23 18:02:59 24° 262° (W) 18:06:36 437.375
CUTE-I 03 Dec 18:06:10 18:11:32 84° 76° (ENE) 18:16:55 437.470
STARS 03 Dec 18:08:16 18:11:12 18° 290° (WNW) 18:14:09 437.465
DOVE 4 03 Dec 18:10:23 18:14:54 67° 76° (ENE) 18:19:44 437.250
SRMSAT 03 Dec 18:14:03 18:19:20 34° 187° (S) 18:24:37 437.500
CINEMA 3 03 Dec 18:14:19 18:17:19 17° 69° (ENE) 18:20:22 145.822/145.860
Cubesat XI-IV 03 Dec 18:31:20 18:36:34 54° 259° (W) 18:41:50 437.490
JUGNU 03 Dec 18:31:58 18:34:49 14° 200° (SSW) 18:37:40 437.505
CUBESAT XI-V 03 Dec 18:35:18 18:37:42 14° 291° (WNW) 18:40:07 437.345
NOAA 15 03 Dec 18:39:03 18:43:53 38° 261° (W) 18:48:44 137.62
LilacSat-2 03 Dec 18:44:47 18:47:52 23° 263° (W) 18:50:59 437.200
Cosmos 2504 03 Dec 18:48:45 18:51:48 12° 79° (E) 18:54:55 435.465 / 435.565
AIST 2 03 Dec 18:50:43 18:54:56 69° 245° (WSW) 18:59:05 435.215
RS-15 03 Dec 18:54:11 19:05:51 53° 252° (WSW) 19:17:03 29.354- 29.394
CUTE 1.7 + AOD 2 03 Dec 19:09:44 19:13:38 37° 75° (ENE) 19:17:31 437.475
HO-68 03 Dec 19:11:28 19:18:26 58° 72° (ENE) 19:25:26 435.675
Cosmos 2491 03 Dec 19:20:08 19:28:48 74° 267° (W) 19:37:28 435.465 / 435.565
STRAND 1 03 Dec 19:24:29 19:29:25 50° 100° (E) 19:34:20 437.568
CANX-2 03 Dec 19:26:46 19:31:00 78° 77° (ENE) 19:35:13 2200.000
NOAA 18 03 Dec 19:32:53 19:37:00 21° 263° (W) 19:41:09 137.9125
YUBILEINY 03 Dec 19:39:09 19:47:50 83° 94° (E) 19:56:35 435.215
UWE-3 03 Dec 19:39:28 19:42:58 21° 72° (ENE) 19:46:28 435.000/436.395/437.385
AAUSAT CUBESAT 2 03 Dec 19:47:09 19:50:50 33° 74° (ENE) 19:54:31 437.432
CINEMA 3 03 Dec 19:49:33 19:54:01 39° 262° (W) 19:58:38 145.822/145.860
SEEDS 03 Dec 19:58:10 20:02:20 76° 259° (WSW) 20:06:30 437.485
SRMSAT 03 Dec 20:03:46 20:08:04 21° 196° (SSW) 20:12:23 437.500
AIST 1 03 Dec 20:12:47 20:17:01 69° 94° (E) 20:21:18
SO-50 03 Dec 20:13:18 20:17:57 52° 113° (ESE) 20:22:34 436.795
COMPASS 1 03 Dec 20:14:01 20:18:08 75° 259° (W) 20:22:15 437.405
ZACube-1 03 Dec 20:26:00 20:30:21 44° 75° (ENE) 20:34:40 437.345
CUBEBUG 2 03 Dec 20:26:00 20:30:42 64° 260° (W) 20:35:26 437.445
FUNcube-1 03 Dec 20:35:15 20:39:41 52° 76° (ENE) 20:44:05 145.935
Cosmos 2504 03 Dec 20:35:46 20:43:49 87° 277° (W) 20:52:29 435.465 / 435.565
CUTE 1.7 + AOD 2 03 Dec 20:48:02 20:49:31 12° 266° (W) 20:51:00 437.475
HO-68 03 Dec 21:01:34 21:06:22 19° 264° (W) 21:11:13 435.675
PRISM 03 Dec 21:03:18 21:07:03 32° 99° (E) 21:10:47 437.425
STRAND 1 03 Dec 21:05:35 21:08:06 14° 293° (WNW) 21:10:36 437.568
Oscar 11 03 Dec 21:09:45 21:14:00 58° 259° (W) 21:18:16 145.826/435.025
DELFI C3 03 Dec 21:09:51 21:13:29 38° 75° (ENE) 21:17:09 145.870
UWE-3 03 Dec 21:15:15 21:19:11 27° 263° (W) 21:23:08 435.000/436.395/437.385
AAUSAT CUBESAT 2 03 Dec 21:24:34 21:26:19 12° 265° (W) 21:28:03 437.432
CUSAT 1 03 Dec 21:28:31 21:32:22 65° 263° (W) 21:37:28 437.405
YUBILEINY 03 Dec 21:41:08 21:45:26 14° 289° (WNW) 21:49:47 435.215
DANDE 03 Dec 21:48:28 21:51:12 33° 83° (E) 21:54:33 436.750
SO-50 03 Dec 21:56:10 21:58:38 14° 307° (NW) 22:01:06 436.795
ZACube-1 03 Dec 22:04:56 22:06:42 12° 266° (W) 22:08:27 437.345
PCSat 03 Dec 22:05:50 22:11:16 76° 66° (ENE) 22:16:39 145.827
HUMSAT D 03 Dec 22:18:08 22:22:16 51° 260° (W) 22:26:22 437.325/437.525
UNISAT 6 03 Dec 22:21:45 22:26:04 57° 100° (E) 22:30:16 437.425
Cosmos 2504 03 Dec 22:35:20 22:38:19 12° 292° (WNW) 22:41:23 435.465 / 435.565
PRISM 03 Dec 22:39:53 22:42:00 14° 290° (WNW) 22:44:07 437.425
ESTCUBE 1 03 Dec 22:48:30 22:52:37 37° 74° (ENE) 22:56:45 437.505/2401.250
TIGRISAT 03 Dec 22:52:37 22:56:56 61° 284° (WNW) 23:01:08 435.000
ANTELSAT 03 Dec 22:53:24 22:57:40 55° 284° (WNW) 23:01:51 437.575/2403.000
SPROUT 03 Dec 23:02:53 23:04:23 12° 69° (ENE) 23:05:54 437.525
AISAT 03 Dec 23:06:53 23:10:26 24° 72° (ENE) 23:14:01 437.250
50 SAT 03 Dec 23:21:41 23:24:31 23° 74° (ENE) 23:27:21 437.505
NANOSAT C BR1 03 Dec 23:33:45 23:37:32 31° 98° (E) 23:41:16 145.865
QB50P2 03 Dec 23:36:48 23:40:49 41° 99° (E) 23:44:48 145.880/145.840
POLYITAN 1 03 Dec 23:37:27 23:41:25 39° 99° (E) 23:45:21 437.675
CUBEBUG 1 03 Dec 23:39:06 23:43:25 87° 258° (WSW) 23:47:48 437.445
VELOX 1 03 Dec 23:43:04 23:47:25 66° 77° (ENE) 23:51:48 145.980
JAS-2 03 Dec 23:45:26 23:50:38 73° 103° (ESE) 23:56:11 435.910
Cosmos 2499 03 Dec 23:46:27 23:51:51 19° 82° (E) 23:57:24 435.465 / 435.565
QB50P1 03 Dec 23:51:12 23:55:23 60° 101° (E) 23:59:31 145.935-145.965
DUCHIFAT 1 03 Dec 23:57:01 00:01:11 60° 101° (E) 00:05:18 145.980
DX 1 04 Dec 00:05:09 00:09:25 61° 76° (ENE) 00:13:44 434.975-435.025
POPSAT HIP 1 04 Dec 00:12:26 00:16:39 71° 283° (WNW) 00:20:50 437.405
PHONESAT 2.4 04 Dec 00:14:07 00:16:40 41° 144° (SE) 00:19:12 2401.200-2431.200
ISS 04 Dec 00:14:31 00:16:56 19° 40° (NE) 00:19:20 145.825
UKube-1 04 Dec 00:17:28 00:21:43 63° 75° (ENE) 00:25:58 .
GONETS M04 04 Dec 00:17:35 00:24:57 31° 87° (E) 00:32:16
ESTCUBE 1 04 Dec 00:27:20 00:29:29 13° 265° (W) 00:31:37 437.505/2401.250
TISAT 1 04 Dec 00:32:15 00:35:22 20° 71° (ENE) 00:38:31 437.305
SPROUT 04 Dec 00:35:50 00:39:52 41° 261° (W) 00:43:57 437.525
AISAT 04 Dec 00:43:30 00:46:45 20° 263° (W) 00:50:03 437.250
50 SAT 04 Dec 00:56:21 00:57:45 12° 264° (W) 00:59:10 437.505
BUGSAT 1 04 Dec 01:04:39 01:08:43 52° 284° (WNW) 01:12:43 437.445
Gurwin Techsat 1B 04 Dec 01:10:03 01:12:24 13° 94° (E) 01:14:44 435.225
NANOSAT C BR1 04 Dec 01:10:38 01:12:55 14° 290° (WNW) 01:15:11 145.865
QB50P2 04 Dec 01:14:55 01:16:10 11° 291° (WNW) 01:17:25 145.880/145.840
POLYITAN 1 04 Dec 01:15:16 01:16:47 12° 291° (WNW) 01:18:19 437.675
